Time,TemperatureF,DewpointF,PressureIn,WindDirection,WindDirectionDegrees,WindSpeedMPH,WindSpeedGustMPH,Humidity,HourlyPrecipIn,Conditions,Clouds,dailyrainin,SoftwareType,DateUTC
2013-03-07 00:04:00,40.0,-99.9,-100.00,North,-999,-999.0,-999.0,-999,0.00,,,0.34,,2013-03-07 08:04:00,
2013-03-07 00:12:00,40.0,-99.9,-100.00,North,-999,-999.0,-999.0,-999,0.00,,,0.34,,2013-03-07 08:12:00,
2013-03-07 00:23:00,40.0,-99.9,-100.00,North,-999,-999.0,-999.0,-999,0.00,,,0.34,,2013-03-07 08:23:00,
2013-03-07 00:30:00,40.0,-99.9,-100.00,North,-999,-999.0,-999.0,-999,0.00,,,0.34,,2013-03-07 08:30:00,
2013-03-07 01:04:00,40.0,-99.9,-100.00,North,-999,-999.0,-999.0,-999,0.00,,,0.34,,2013-03-07 09:04:00,
2013-03-07 01:14:00,40.0,-99.9,-100.00,North,-999,-999.0,-999.0,-999,0.00,,,0.34,,2013-03-07 09:14:00,
2013-03-07 01:24:00,40.0,-99.9,-100.00,North,-999,-999.0,-999.0,-999,0.00,,,0.34,,2013-03-07 09:24:00,
2013-03-07 01:30:00,41.0,-99.9,-100.00,North,-999,-999.0,-999.0,-999,0.00,,,0.34,,2013-03-07 09:30:00,
2013-03-07 02:05:00,41.0,-99.9,-100.00,North,-999,-999.0,-999.0,-999,0.00,,,0.34,,2013-03-07 10:05:00,
2013-03-07 02:14:00,41.0,-99.9,-100.00,North,-999,-999.0,-999.0,-999,0.00,,,0.34,,2013-03-07 10:14:00,
2013-03-07 02:24:00,41.0,-99.9,-100.00,North,-999,-999.0,-999.0,-999,0.00,,,0.34,,2013-03-07 10:24:00,
2013-03-07 02:30:00,41.0,-99.9,-100.00,North,-999,-999.0,-999.0,-999,0.01,,,0.35,,2013-03-07 10:30:00,
2013-03-07 03:04:00,41.0,-99.9,-100.00,North,-999,-999.0,-999.0,-999,0.01,,,0.35,,2013-03-07 11:04:00,
2013-03-07 03:13:00,41.0,-99.9,-100.00,North,-999,-999.0,-999.0,-999,0.01,,,0.35,,2013-03-07 11:13:00,
2013-03-07 03:24:00,41.0,-99.9,-100.00,North,-999,-999.0,-999.0,-999,0.01,,,0.35,,2013-03-07 11:24:00,
2013-03-07 03:30:00,41.0,-99.9,-100.00,North,-999,-999.0,-999.0,-999,0.01,,,0.36,,2013-03-07 11:30:00,
2013-03-07 04:04:00,41.0,-99.9,-100.00,North,-999,-999.0,-999.0,-999,0.01,,,0.36,,2013-03-07 12:04:00,
2013-03-07 04:13:00,41.0,-99.9,-100.00,North,-999,-999.0,-999.0,-999,0.01,,,0.36,,2013-03-07 12:13:00,
2013-03-07 04:30:00,41.0,-99.9,-100.00,North,-999,-999.0,-999.0,-999,0.01,,,0.37,,2013-03-07 12:30:00,
2013-03-07 05:03:00,41.0,-99.9,-100.00,North,-999,-999.0,-999.0,-999,0.01,,,0.37,,2013-03-07 13:03:00,
2013-03-07 05:13:00,41.0,-99.9,-100.00,North,-999,-999.0,-999.0,-999,0.01,,,0.37,,2013-03-07 13:13:00,
2013-03-07 05:23:00,41.0,-99.9,-100.00,North,-999,-999.0,-999.0,-999,0.01,,,0.37,,2013-03-07 13:23:00,
2013-03-07 05:30:00,41.0,-99.9,-100.00,North,-999,-999.0,-999.0,-999,0.01,,,0.37,,2013-03-07 13:30:00,
2013-03-07 06:03:00,41.0,-99.9,-100.00,North,-999,-999.0,-999.0,-999,0.01,,,0.37,,2013-03-07 14:03:00,
2013-03-07 06:13:00,41.0,-99.9,-100.00,North,-999,-999.0,-999.0,-999,0.01,,,0.37,,2013-03-07 14:13:00,
2013-03-07 06:23:00,41.0,-99.9,-100.00,North,-999,-999.0,-999.0,-999,0.01,,,0.37,,2013-03-07 14:23:00,
2013-03-07 06:30:00,40.0,-99.9,-100.00,North,-999,-999.0,-999.0,-999,0.01,,,0.37,,2013-03-07 14:30:00,
2013-03-07 07:04:00,40.0,-99.9,-100.00,North,-999,-999.0,-999.0,-999,0.01,,,0.37,,2013-03-07 15:04:00,
2013-03-07 07:13:00,40.0,-99.9,-100.00,North,-999,-999.0,-999.0,-999,0.01,,,0.37,,2013-03-07 15:13:00,
2013-03-07 07:24:00,40.0,-99.9,-100.00,North,-999,-999.0,-999.0,-999,0.01,,,0.37,,2013-03-07 15:24:00,
2013-03-07 07:30:00,41.0,-99.9,-100.00,North,-999,-999.0,-999.0,-999,0.00,,,0.36,,2013-03-07 15:30:00,
2013-03-07 08:03:00,41.0,-99.9,-100.00,North,-999,-999.0,-999.0,-999,0.00,,,0.36,,2013-03-07 16:03:00,
2013-03-07 08:14:00,41.0,-99.9,-100.00,North,-999,-999.0,-999.0,-999,0.00,,,0.36,,2013-03-07 16:14:00,
2013-03-07 08:24:00,41.0,-99.9,-100.00,North,-999,-999.0,-999.0,-999,0.00,,,0.36,,2013-03-07 16:24:00,
2013-03-07 08:30:00,42.0,-99.9,-100.00,North,-999,-999.0,-999.0,-999,0.00,,,0.34,,2013-03-07 16:30:00,
2013-03-07 09:03:00,42.0,-99.9,-100.00,North,-999,-999.0,-999.0,-999,0.00,,,0.34,,2013-03-07 17:03:00,
2013-03-07 09:13:00,42.0,-99.9,-100.00,North,-999,-999.0,-999.0,-999,0.00,,,0.34,,2013-03-07 17:13:00,
2013-03-07 09:23:00,42.0,-99.9,-100.00,North,-999,-999.0,-999.0,-999,0.00,,,0.34,,2013-03-07 17:23:00,
2013-03-07 09:30:00,43.0,-99.9,-100.00,North,-999,-999.0,-999.0,-999,0.00,,,0.33,,2013-03-07 17:30:00,
2013-03-07 10:05:00,43.0,-99.9,-100.00,North,-999,-999.0,-999.0,-999,0.00,,,0.33,,2013-03-07 18:05:00,
2013-03-07 10:13:00,43.0,-99.9,-100.00,North,-999,-999.0,-999.0,-999,0.00,,,0.33,,2013-03-07 18:13:00,
2013-03-07 10:22:00,43.0,-99.9,-100.00,North,-999,-999.0,-999.0,-999,0.00,,,0.33,,2013-03-07 18:22:00,
2013-03-07 10:30:00,45.0,-99.9,-100.00,North,-999,-999.0,-999.0,-999,0.00,,,0.31,,2013-03-07 18:30:00,
2013-03-07 11:04:00,45.0,-99.9,-100.00,North,-999,-999.0,-999.0,-999,0.00,,,0.31,,2013-03-07 19:04:00,
2013-03-07 11:13:00,45.0,-99.9,-100.00,North,-999,-999.0,-999.0,-999,0.00,,,0.31,,2013-03-07 19:13:00,
2013-03-07 11:24:00,45.0,-99.9,-100.00,North,-999,-999.0,-999.0,-999,0.00,,,0.31,,2013-03-07 19:24:00,
2013-03-07 11:30:00,48.0,-99.9,-100.00,North,-999,-999.0,-999.0,-999,0.00,,,0.30,,2013-03-07 19:30:00,
2013-03-07 12:23:00,48.0,-99.9,-100.00,North,-999,-999.0,-999.0,-999,0.00,,,0.30,,2013-03-07 20:23:00,
2013-03-07 12:30:00,45.0,-99.9,-100.00,North,-999,-999.0,-999.0,-999,0.04,,,0.33,,2013-03-07 20:30:00,
2013-03-07 13:03:00,45.0,-99.9,-100.00,North,-999,-999.0,-999.0,-999,0.04,,,0.33,,2013-03-07 21:03:00,
2013-03-07 13:13:00,45.0,-99.9,-100.00,North,-999,-999.0,-999.0,-999,0.04,,,0.33,,2013-03-07 21:13:00,
2013-03-07 13:23:00,45.0,-99.9,-100.00,North,-999,-999.0,-999.0,-999,0.04,,,0.33,,2013-03-07 21:23:00,
2013-03-07 13:30:00,49.0,-99.9,-100.00,North,-999,-999.0,-999.0,-999,0.06,,,0.38,,2013-03-07 21:30:00,
2013-03-07 14:02:00,49.0,-99.9,-100.00,North,-999,-999.0,-999.0,-999,0.06,,,0.38,,2013-03-07 22:02:00,
2013-03-07 14:12:00,49.0,-99.9,-100.00,North,-999,-999.0,-999.0,-999,0.06,,,0.38,,2013-03-07 22:12:00,
2013-03-07 14:23:00,49.0,-99.9,-100.00,North,-999,-999.0,-999.0,-999,0.06,,,0.38,,2013-03-07 22:23:00,
2013-03-07 14:30:00,50.0,-99.9,-100.00,North,-999,-999.0,-999.0,-999,0.00,,,0.37,,2013-03-07 22:30:00,
2013-03-07 15:04:00,50.0,-99.9,-100.00,North,-999,-999.0,-999.0,-999,0.00,,,0.37,,2013-03-07 23:04:00,
2013-03-07 15:13:00,50.0,-99.9,-100.00,North,-999,-999.0,-999.0,-999,0.00,,,0.37,,2013-03-07 23:13:00,
2013-03-07 15:23:00,50.0,-99.9,-100.00,North,-999,-999.0,-999.0,-999,0.00,,,0.37,,2013-03-07 23:23:00,
2013-03-07 15:30:00,46.0,-99.9,-100.00,North,-999,-999.0,-999.0,-999,0.09,,,0.43,,2013-03-07 23:30:00,
2013-03-07 16:05:00,46.0,-99.9,-100.00,North,-999,-999.0,-999.0,-999,0.09,,,0.43,,2013-03-08 00:05:00,
2013-03-07 16:14:00,46.0,-99.9,-100.00,North,-999,-999.0,-999.0,-999,0.09,,,0.43,,2013-03-08 00:14:00,
2013-03-07 16:24:00,46.0,-99.9,-100.00,North,-999,-999.0,-999.0,-999,0.09,,,0.43,,2013-03-08 00:24:00,
2013-03-07 16:30:00,45.0,-99.9,-100.00,North,-999,-999.0,-999.0,-999,0.04,,,0.42,,2013-03-08 00:30:00,
2013-03-07 17:02:00,45.0,-99.9,-100.00,North,-999,-999.0,-999.0,-999,0.04,,,0.42,,2013-03-08 01:02:00,
2013-03-07 17:12:00,45.0,-99.9,-100.00,North,-999,-999.0,-999.0,-999,0.04,,,0.42,,2013-03-08 01:12:00,
2013-03-07 17:22:00,45.0,-99.9,-100.00,North,-999,-999.0,-999.0,-999,0.04,,,0.42,,2013-03-08 01:22:00,
2013-03-07 17:30:00,47.0,-99.9,-100.00,North,-999,-999.0,-999.0,-999,0.03,,,0.43,,2013-03-08 01:30:00,
2013-03-07 18:02:00,47.0,-99.9,-100.00,North,-999,-999.0,-999.0,-999,0.03,,,0.43,,2013-03-08 02:02:00,
2013-03-07 18:12:00,47.0,-99.9,-100.00,North,-999,-999.0,-999.0,-999,0.03,,,0.43,,2013-03-08 02:12:00,
2013-03-07 18:22:00,47.0,-99.9,-100.00,North,-999,-999.0,-999.0,-999,0.03,,,0.43,,2013-03-08 02:22:00,
2013-03-07 18:30:00,42.0,-99.9,-100.00,North,-999,-999.0,-999.0,-999,0.00,,,0.38,,2013-03-08 02:30:00,
2013-03-07 19:12:00,42.0,-99.9,-100.00,North,-999,-999.0,-999.0,-999,0.00,,,0.38,,2013-03-08 03:12:00,
2013-03-07 19:23:00,42.0,-99.9,-100.00,North,-999,-999.0,-999.0,-999,0.00,,,0.38,,2013-03-08 03:23:00,
2013-03-07 19:30:00,40.0,-99.9,-100.00,North,-999,-999.0,-999.0,-999,0.00,,,-99.99,,2013-03-08 03:30:00,
2013-03-07 20:02:00,40.0,-99.9,-100.00,North,-999,-999.0,-999.0,-999,0.00,,,-99.99,,2013-03-08 04:02:00,
2013-03-07 20:12:00,40.0,-99.9,-100.00,North,-999,-999.0,-999.0,-999,0.00,,,-99.99,,2013-03-08 04:12:00,
2013-03-07 20:22:00,40.0,-99.9,-100.00,North,-999,-999.0,-999.0,-999,0.00,,,-99.99,,2013-03-08 04:22:00,
2013-03-07 20:30:00,38.0,-99.9,-100.00,North,-999,-999.0,-999.0,-999,0.00,,,0.33,,2013-03-08 04:30:00,
2013-03-07 21:03:00,38.0,-99.9,-100.00,North,-999,-999.0,-999.0,-999,0.00,,,0.33,,2013-03-08 05:03:00,
2013-03-07 21:12:00,38.0,-99.9,-100.00,North,-999,-999.0,-999.0,-999,0.00,,,0.33,,2013-03-08 05:12:00,
2013-03-07 21:22:00,38.0,-99.9,-100.00,North,-999,-999.0,-999.0,-999,0.00,,,0.33,,2013-03-08 05:22:00,
2013-03-07 21:30:00,36.0,-99.9,-100.00,North,-999,-999.0,-999.0,-999,0.00,,,0.32,,2013-03-08 05:30:00,
2013-03-07 22:02:00,36.0,-99.9,-100.00,North,-999,-999.0,-999.0,-999,0.00,,,0.32,,2013-03-08 06:02:00,
2013-03-07 22:11:00,36.0,-99.9,-100.00,North,-999,-999.0,-999.0,-999,0.00,,,0.32,,2013-03-08 06:11:00,
2013-03-07 22:22:00,36.0,-99.9,-100.00,North,-999,-999.0,-999.0,-999,0.00,,,0.32,,2013-03-08 06:22:00,
2013-03-07 22:30:00,34.0,-99.9,-100.00,North,-999,-999.0,-999.0,-999,0.00,,,0.31,,2013-03-08 06:30:00,
2013-03-07 23:02:00,34.0,-99.9,-100.00,North,-999,-999.0,-999.0,-999,0.00,,,0.31,,2013-03-08 07:02:00,
2013-03-07 23:12:00,34.0,-99.9,-100.00,North,-999,-999.0,-999.0,-999,0.00,,,0.31,,2013-03-08 07:12:00,
2013-03-07 23:22:00,34.0,-99.9,-100.00,North,-999,-999.0,-999.0,-999,0.00,,,0.31,,2013-03-08 07:22:00,
2013-03-07 23:30:00,33.0,-99.9,-100.00,North,-999,-999.0,-999.0,-999,0.00,,,-99.99,,2013-03-08 07:30:00,